Wind_Speed
13 14 13 17 25 26 31 30 28 27 26 25 28 27 27 29 33 36 39 41 44 41 43 41 42 40 39 35 38 35 32 27 23 15 17 16 12 8 6 7 16 19 17
11 13 14 11 13 16 18 21 24 26 27 27 29 31 31 31 32 35 36 43 48 46 43 43 42 45 42 36 35 38 35 29 26 23 22 20 19 16 14 11 10 11 14
5 7 11 11 11 14 15 17 19 23 25 27 27 28 29 30 31 33 36 35 42 43 44 46 46 44 40 41 40 38 35 31 26 26 25 23 22 22 19 17 14 14 12
7 3 8 14 16 15 17 18 19 18 21 24 24 25 27 28 29 30 31 31 40 44 45 45 46 39 35 36 39 38 34 31 26 26 27 25 24 25 22 21 18 17 15
8 5 0 10 16 18 18 18 20 20 19 19 20 21 22 20 24 25 26 27 30 35 35 40 33 32 35 32 32 31 33 29 25 24 31 27 28 28 26 21 19 17 18
10 8 5 3 12 17 16 17 18 19 16 16 18 21 22 23 24 26 26 30 30 28 32 31 29 26 32 33 35 35 33 30 32 28 31 33 31 30 24 22 20 20 23
11 9 13 9 4 15 14 14 16 15 15 14 18 21 22 22 22 22 23 25 27 32 30 33 31 30 32 35 32 31 32 32 29 28 32 33 33 28 24 22 21 22 21
11 9 14 13 7 8 14 14 15 16 17 14 13 14 19 23 24 22 21 26 32 29 29 30 30 31 31 33 34 34 33 31 29 29 30 30 28 26 23 19 19 19 21
13 11 10 12 10 8 5 15 14 16 19 21 17 16 17 16 18 22 22 30 32 33 33 32 29 27 24 28 33 38 36 34 31 30 27 26 28 24 21 22 22 21 20
14 14 11 10 13 9 7 5 12 13 17 22 26 22 21 22 19 18 21 25 26 24 27 26 26 27 25 27 31 32 34 32 30 29 29 29 26 25 24 23 21 19 20
20 16 11 7 14 10 9 9 10 12 16 20 22 25 24 20 27 24 24 23 26 29 29 28 28 27 25 24 26 28 29 26 26 26 27 25 26 27 26 22 20 18 15
22 20 15 10 11 13 12 11 11 11 16 19 19 24 26 22 21 29 28 27 28 32 30 28 29 30 31 31 30 28 26 25 24 26 28 29 25 21 18 16 15 14 15
21 21 18 14 10 14 14 14 10 10 13 19 20 22 27 23 21 23 20 33 37 34 34 27 24 26 28 29 30 27 27 27 27 26 23 20 18 17 15 16 16 17 16
22 21 19 16 15 13 12 15 16 12 13 15 20 20 20 21 26 29 22 22 28 30 31 31 20 22 22 26 27 26 26 25 23 19 19 18 16 15 15 16 15 13 12
20 18 17 15 17 17 12 13 19 17 15 16 13 16 18 20 22 26 25 23 21 24 24 30 24 19 18 23 22 22 20 18 14 18 18 16 15 13 13 12 10 10 9
20 17 14 14 15 17 15 14 16 18 21 18 13 15 21 19 15 15 21 21 23 24 26 20 27 23 21 19 22 17 20 19 20 17 15 13 11 11 10 10 9 8 8
20 18 16 13 14 17 16 15 14 15 19 19 14 16 12 17 17 16 16 18 18 19 21 27 27 23 21 19 17 16 15 13 13 13 12 11 10 10 9 7 7 7 7
18 17 15 14 12 16 17 18 16 16 19 17 13 15 17 17 20 21 21 21 23 21 21 22 22 22 20 17 17 16 15 16 15 14 13 11 9 8 9 8 8 6 5
21 17 16 12 12 14 17 19 19 19 22 21 20 20 20 21 21 20 20 19 23 23 23 22 20 18 18 19 19 17 16 14 13 12 11 10 9 8 8 7 7 6 5
20 14 13 11 12 13 16 18 21 22 24 22 21 22 21 21 21 22 21 19 20 20 21 20 20 20 20 18 18 16 15 15 14 13 10 9 10 11 10 9 9 9 8
18 16 11 9 7 9 13 17 19 23 23 23 23 22 22 22 23 25 24 22 22 23 23 23 22 21 20 18 17 17 16 15 14 12 10 10 9 9 9 9 9 10 9
15 14 12 8 5 3 5 11 16 19 20 20 22 22 24 25 26 26 24 26 26 25 23 22 23 21 17 15 14 13 13 14 15 14 14 14 13 12 12 12 11 9 9
14 12 10 8 8 4 2 6 10 15 18 18 19 20 25 28 29 28 28 28 28 27 26 23 19 17 16 16 16 15 15 15 15 14 13 12 11 12 11 10 9 8 7
13 11 10 8 7 7 5 5 8 10 12 12 14 20 24 25 25 26 27 26 25 23 22 19 18 16 16 16 16 16 15 14 13 11 10 9 8 9 10 9 8 7 7
13 11 9 8 7 6 6 8 7 6 8 11 11 13 15 19 19 19 20 21 20 18 17 17 17 17 17 17 16 15 14 12 11 10 9 8 7 8 9 10 9 7 5
12 10 9 8 6 6 5 6 6 7 8 7 9 9 10 12 12 12 12 13 13 14 15 16 16 16 16 15 14 13 12 11 11 10 9 9 9 10 11 10 9 7 5
Wind_Direction
193 202 206 216 219 217 216 215 214 217 221 233 240 242 243 238 234 236 232 232 235 241 237 235 231 230 233 230 222 224 230 226 224 232 256 270 273 270 256 238 231 233 234
182 194 203 209 217 219 225 229 231 230 229 231 236 245 248 244 241 243 241 235 235 241 245 242 237 230 226 227 223 226 224 236 234 228 244 257 263 265 260 250 241 236 233
52 174 201 206 225 231 235 232 233 234 237 239 245 243 244 241 242 242 239 236 241 244 244 241 239 236 229 225 228 231 230 226 235 240 237 245 254 257 255 251 246 245 242
26 198 207 215 224 233 243 242 240 247 243 240 245 239 231 232 230 231 235 239 245 244 243 242 233 228 228 228 230 234 241 232 233 243 247 241 247 254 251 251 250 250 251
14 33 204 223 228 231 232 247 247 254 247 251 248 231 225 229 233 236 239 234 231 238 229 223 221 230 231 231 231 232 232 241 238 248 245 242 244 247 248 256 257 254 252
346 2 13 276 236 233 238 239 241 252 249 247 233 226 229 233 232 233 234 236 239 225 236 219 225 229 224 232 235 233 234 228 244 243 245 244 247 249 254 254 254 251 252
338 355 353 353 263 237 235 246 245 251 248 241 232 231 231 229 224 224 228 233 233 223 229 223 225 219 219 228 231 236 233 234 236 237 244 249 254 254 252 252 252 254 257
343 354 333 343 355 245 237 249 246 249 242 238 228 234 238 237 227 224 225 225 224 221 229 218 230 231 227 228 224 230 232 236 231 233 239 244 249 249 248 252 252 251 250
332 326 327 341 343 325 223 233 242 250 243 237 238 238 240 238 232 225 224 221 224 222 229 233 233 232 231 231 227 228 229 231 232 233 236 240 242 246 248 248 247 247 254
313 317 326 337 318 326 314 259 236 259 243 247 241 238 239 241 233 226 217 212 213 219 222 225 227 230 228 228 228 227 231 231 230 229 228 234 240 248 247 252 249 248 251
304 301 303 325 317 307 299 287 262 243 255 249 245 241 246 253 235 227 217 221 218 217 223 221 226 226 225 229 228 228 231 232 230 231 235 236 236 242 242 242 246 246 250
306 301 290 312 313 302 292 280 277 264 254 250 252 250 244 241 231 222 220 224 228 233 231 228 232 232 230 227 230 229 229 229 228 228 231 229 227 230 231 229 235 240 248
309 301 297 297 306 295 295 280 288 276 262 246 243 248 240 240 236 230 233 223 228 233 237 235 234 235 232 228 226 225 223 230 232 217 212 211 222 223 222 236 240 245 245
317 305 297 288 302 286 281 275 284 286 290 262 239 245 235 239 240 233 229 225 224 225 225 226 232 225 218 221 219 224 225 220 214 220 220 218 217 235 236 237 240 238 238
323 314 300 285 290 288 279 266 270 281 285 279 246 242 232 245 227 221 228 230 209 216 216 205 207 203 201 202 202 205 212 214 238 227 216 222 223 215 220 223 224 232 241
331 322 310 282 290 285 285 266 254 269 280 273 255 240 217 220 210 229 219 219 216 223 204 206 189 204 223 228 214 221 202 206 216 207 204 204 203 205 212 214 221 225 230
334 325 315 291 282 284 281 263 254 258 278 270 249 227 215 220 195 191 184 173 183 185 200 192 194 182 178 173 172 178 180 178 182 183 185 187 197 199 196 198 220 223 215
334 329 320 302 281 274 272 257 243 250 262 240 218 203 199 209 184 180 179 174 170 173 176 170 170 169 169 175 171 172 171 169 169 167 166 168 176 192 191 190 186 191 194
340 332 328 311 291 269 266 254 238 223 215 202 191 180 179 178 176 173 176 185 180 173 173 173 174 171 167 165 163 164 163 164 160 155 156 164 162 166 169 175 176 194 207
348 338 332 321 299 274 260 250 234 217 201 197 192 191 187 186 183 182 179 186 185 181 180 174 166 165 164 165 162 166 164 167 171 171 166 174 177 171 171 186 191 202 214
352 350 348 335 321 283 253 240 228 215 206 191 191 191 189 190 183 177 171 173 172 171 170 171 166 166 165 168 174 176 178 177 172 169 175 181 186 193 196 210 222 228 234
360 0 3 11 17 8 245 221 215 210 203 193 184 188 184 183 180 177 174 170 169 171 172 173 170 172 174 182 186 190 189 187 182 180 181 186 194 208 212 212 214 218 220
356 4 3 27 33 38 168 167 171 181 178 180 179 179 176 172 168 168 168 168 170 171 172 175 179 183 191 199 200 199 192 190 188 188 191 194 205 215 226 226 222 227 235
354 5 14 12 41 49 59 108 142 161 168 163 156 153 157 158 157 158 164 169 170 173 177 182 190 198 199 193 185 183 185 188 188 190 196 197 208 219 228 232 231 230 231
346 354 8 19 20 43 64 82 97 124 151 155 153 147 147 150 157 160 161 165 171 175 181 185 188 189 187 185 185 185 188 189 192 197 204 209 221 233 237 237 228 222 230
343 345 351 2 19 20 20 74 100 108 107 137 145 145 148 146 150 155 157 160 163 174 181 185 189 192 192 189 188 190 193 197 204 211 220 224 228 232 233 233 233 229 238
Height
1462 1464 1465 1468 1471 1474 1477 1481 1484 1487 1491 1492 1494 1498 1502 1505 1509 1512 1514 1518 1520 1524 1528 1532 1535 1539 1543 1548 1552 1556 1559 1561 1562 1565 1568 1572 1575 1574 1575 1574 1576 1578 1580
1460 1462 1464 1466 1468 1470 1473 1476 1478 1482 1485 1487 1490 1492 1494 1498 1501 1504 1506 1509 1511 1514 1519 1523 1527 1531 1536 1541 1546 1550 1555 1557 1560 1560 1563 1567 1571 1572 1572 1572 1573 1575 1576
1457 1458 1461 1463 1465 1468 1470 1472 1474 1476 1479 1481 1483 1485 1487 1490 1492 1495 1497 1500 1503 1507 1510 1515 1519 1523 1528 1534 1539 1544 1547 1550 1554 1558 1558 1560 1564 1568 1568 1569 1569 1571 1572
1455 1456 1458 1460 1462 1464 1466 1468 1469 1471 1473 1475 1476 1477 1479 1482 1484 1488 1491 1493 1496 1499 1503 1507 1512 1515 1521 1527 1533 1537 1542 1543 1546 1552 1555 1556 1557 1563 1562 1564 1564 1566 1568
1453 1455 1455 1456 1458 1460 1462 1464 1465 1466 1467 1468 1469 1471 1474 1476 1477 1480 1484 1487 1490 1494 1498 1502 1506 1512 1517 1522 1526 1530 1535 1539 1542 1545 1549 1551 1552 1555 1556 1559 1560 1562 1563
1453 1452 1452 1453 1454 1456 1457 1458 1460 1461 1462 1462 1463 1466 1468 1470 1472 1475 1479 1482 1485 1489 1493 1498 1502 1506 1512 1516 1520 1524 1527 1531 1535 1538 1544 1546 1547 1551 1550 1553 1555 1556 1557
1451 1450 1450 1450 1450 1451 1452 1453 1454 1455 1457 1458 1459 1461 1463 1465 1468 1470 1473 1477 1481 1483 1487 1492 1498 1501 1505 1510 1513 1518 1521 1524 1529 1532 1537 1539 1541 1544 1548 1547 1548 1550 1552
1449 1448 1448 1446 1446 1446 1447 1449 1450 1451 1452 1454 1456 1458 1458 1460 1463 1466 1468 1472 1476 1479 1484 1487 1492 1496 1499 1504 1509 1513 1514 1518 1521 1525 1529 1534 1538 1540 1539 1540 1544 1546 1545
1447 1445 1444 1443 1443 1443 1443 1444 1446 1447 1448 1450 1453 1454 1455 1457 1459 1461 1463 1467 1471 1474 1480 1483 1487 1492 1496 1500 1503 1507 1509 1512 1517 1520 1523 1526 1531 1530 1532 1537 1537 1539 1538
1443 1442 1441 1440 1440 1440 1439 1440 1441 1442 1444 1446 1448 1450 1452 1454 1456 1458 1460 1462 1466 1470 1474 1478 1482 1487 1491 1495 1498 1500 1502 1505 1510 1513 1516 1520 1522 1525 1528 1530 1531 1531 1533
1442 1441 1439 1438 1439 1439 1438 1438 1437 1438 1439 1441 1442 1445 1446 1448 1450 1454 1457 1458 1461 1464 1469 1473 1477 1481 1485 1489 1492 1494 1497 1502 1504 1507 1511 1514 1518 1520 1521 1521 1523 1525 1526
1440 1438 1437 1437 1436 1436 1435 1435 1435 1435 1436 1436 1436 1438 1439 1442 1445 1447 1451 1454 1457 1459 1463 1468 1472 1476 1479 1483 1486 1489 1492 1496 1498 1501 1505 1508 1509 1510 1513 1515 1518 1519 1521
1435 1434 1434 1433 1432 1433 1433 1432 1432 1432 1432 1432 1432 1433 1435 1437 1439 1441 1444 1445 1450 1454 1459 1464 1468 1470 1473 1477 1480 1484 1487 1490 1493 1494 1496 1500 1503 1506 1507 1511 1513 1514 1515
1431 1430 1430 1429 1429 1429 1429 1429 1429 1429 1429 1429 1428 1429 1430 1431 1433 1435 1438 1440 1444 1448 1453 1458 1462 1462 1465 1469 1473 1478 1481 1483 1486 1490 1492 1494 1497 1500 1503 1506 1508 1510 1511
1429 1427 1427 1427 1426 1426 1425 1425 1426 1426 1427 1425 1425 1425 1425 1427 1428 1430 1433 1435 1439 1443 1446 1451 1455 1458 1461 1464 1467 1471 1475 1478 1483 1486 1487 1491 1494 1496 1499 1502 1504 1505 1507
1426 1423 1423 1422 1424 1423 1422 1422 1423 1423 1423 1423 1421 1422 1423 1424 1425 1427 1428 1431 1436 1439 1442 1446 1449 1454 1459 1461 1464 1468 1472 1474 1479 1481 1484 1487 1490 1492 1496 1498 1500 1502 1504
1426 1422 1419 1418 1420 1420 1419 1418 1418 1420 1420 1420 1418 1418 1420 1421 1422 1424 1426 1429 1433 1436 1437 1441 1446 1450 1454 1459 1462 1466 1470 1473 1477 1479 1482 1485 1488 1490 1493 1495 1498 1500 1502
1424 1421 1418 1416 1416 1417 1416 1416 1416 1416 1417 1418 1417 1416 1418 1421 1421 1422 1425 1428 1432 1437 1440 1442 1446 1451 1453 1458 1462 1464 1468 1472 1474 1477 1480 1483 1486 1488 1490 1492 1496 1498 1500
1424 1420 1416 1414 1413 1413 1414 1414 1414 1413 1415 1414 1414 1414 1417 1419 1421 1422 1426 1429 1432 1435 1439 1444 1448 1450 1454 1457 1460 1464 1468 1471 1473 1475 1478 1481 1484 1486 1489 1491 1494 1496 1498
1426 1420 1417 1413 1412 1411 1411 1411 1411 1411 1410 1411 1410 1412 1414 1417 1418 1422 1425 1428 1432 1435 1439 1443 1447 1450 1453 1457 1459 1463 1466 1469 1472 1474 1477 1480 1483 1485 1487 1490 1492 1494 1495
1427 1422 1418 1414 1412 1410 1408 1408 1408 1408 1409 1407 1409 1411 1413 1415 1416 1420 1423 1426 1432 1436 1439 1443 1445 1449 1452 1456 1460 1462 1465 1467 1469 1472 1476 1479 1482 1485 1486 1488 1491 1491 1491
1428 1423 1419 1415 1412 1411 1410 1407 1404 1406 1406 1406 1405 1407 1411 1415 1416 1419 1422 1426 1430 1434 1439 1442 1445 1448 1451 1454 1458 1461 1463 1465 1468 1471 1473 1476 1479 1484 1487 1486 1488 1489 1490
1428 1424 1422 1418 1414 1412 1413 1408 1403 1405 1404 1405 1404 1406 1409 1412 1414 1416 1421 1424 1429 1433 1437 1441 1444 1447 1450 1453 1455 1459 1462 1464 1467 1469 1471 1473 1476 1480 1484 1483 1482 1484 1485
1430 1427 1424 1420 1417 1416 1416 1410 1406 1407 1406 1408 1409 1407 1409 1410 1412 1415 1419 1423 1428 1433 1436 1440 1443 1446 1449 1451 1453 1456 1460 1463 1465 1467 1469 1471 1474 1477 1481 1481 1480 1480 1481
1430 1427 1425 1422 1421 1419 1418 1411 1409 1411 1411 1409 1412 1411 1410 1409 1414 1417 1420 1422 1426 1431 1435 1438 1442 1446 1448 1450 1452 1454 1457 1459 1461 1464 1467 1468 1471 1475 1478 1481 1480 1478 1478
1430 1427 1425 1423 1421 1420 1418 1415 1416 1414 1411 1415 1414 1413 1415 1413 1416 1418 1420 1423 1426 1432 1436 1439 1443 1445 1448 1449 1450 1451 1454 1456 1458 1460 1463 1465 1469 1473 1477 1479 1479 1474 1474